Home   Weather   Kaktovik   Past weeks
Flag for USA

Past Weather in Kaktovik, Alaska, USA — Yesterday and Last 2 Weeks

Now
44 °F

Overcast.


Feels Like: 38 °F
Forecast: 38 / 29 °F
Wind: 12 mph from West

Location: Barter Island

Current Time: Jun 16, 2019 at 12:49:04 pm

Latest Report: Jun 16, 2019 at 11:52 am


Visibility: 10 mi

Pressure: 29.92 "Hg

Humidity: 63%

Dew Point: 32 °F

Location of KaktovikLocation

Past Weather in Kaktovik — Graph

°F

Kaktovik Temperature Yesterday

Maximum temperature yesterday: 38 °F (at 1:52 pm)
Minimum temperature yesterday: 29 °F (at 11:52 pm)
Average temperature yesterday: 33 °F

High & Low Weather Summary for the Past Weeks

 TemperatureHumidityPressure
High49 °F (Jun 11, 4:52 pm)100% (Jun 1, 11:05 am)30.23 "Hg (Jun 1, 11:05 am)
Low27 °F (Jun 9, 10:39 pm)61% (Jun 11, 4:52 pm)29.65 "Hg (Jun 12, 5:52 am)
Average33 °F93%30.03 "Hg
* Reported Jun 1 11:05 am — Jun 16 11:52 am, Kaktovik. Weather by CustomWeather, © 2019

Note: Actual official high and low records may vary slightly from our data, if they occured in-between our weather recording intervals... More about our weather records

Advertising

Kaktovik Weather History for the Previous 24 Hours

Scroll right to see more
 ConditionsComfort  
Time TempWeatherWind HumidityBarometerVisibility
11:52 am
Sun, Jun 16
44 °FOvercast.12 mph63%29.92 "Hg10 mi
10:52 am42 °FOvercast.12 mph68%29.93 "Hg10 mi
9:52 am40 °FOvercast.10 mph73%29.94 "Hg10 mi
8:52 am40 °FOvercast.13 mph80%29.94 "Hg10 mi
7:52 am40 °FOvercast.9 mph86%29.95 "Hg10 mi
6:52 am38 °FPartly sunny.6 mph97%29.96 "Hg10 mi
5:52 am34 °FOvercast.6 mph97%29.96 "Hg10 mi
4:52 am32 °FOvercast.6 mph96%29.96 "Hg10 mi
3:52 am30 °FPartly sunny.No wind96%29.98 "Hg10 mi
2:52 am29 °FIce fog.No wind96%29.99 "Hg5 mi
1:52 am29 °FSunny.3 mph96%29.99 "Hg10 mi
1:37 am28 °FIce fog.3 mph100%30.04 "Hg4 mi
1:15 am28 °FIce fog.5 mph100%30.04 "Hg1 mi
1:05 am28 °FIce fog.5 mph100%30.04 "Hg1 mi
12:59 am28 °FIce fog.5 mph100%30.04 "Hg1 mi
12:23 am30 °FIce fog.5 mph93%30.05 "Hg1 mi
11:52 pm
Sat, Jun 15
29 °FIce fog.6 mph100%30.00 "Hg0 mi
10:52 pm31 °FIce fog.8 mph96%30.01 "Hg0 mi
10:08 pm30 °FIce fog.8 mph93%30.07 "Hg0 mi
9:59 pm30 °FIce fog.6 mph93%30.07 "Hg1 mi
9:29 pm30 °FIce fog.10 mph93%30.08 "Hg1 mi
9:23 pm30 °FIce fog.9 mph93%30.08 "Hg1 mi
8:52 pm32 °FFog.14 mph92%30.04 "Hg0 mi
8:25 pm34 °FFog.8 mph87%30.08 "Hg0 mi
8:18 pm34 °FFog.8 mph93%30.09 "Hg1 mi
7:52 pm32 °FFog.6 mph96%30.04 "Hg1 mi
6:52 pm32 °FFog.5 mph96%30.06 "Hg0 mi
6:30 pm32 °FFog.5 mph93%30.12 "Hg1 mi
6:18 pm32 °FIce fog.6 mph93%30.12 "Hg1 mi
5:52 pm33 °FLow clouds.7 mph88%30.08 "Hg10 mi
5:02 pm36 °FFog.6 mph81%30.13 "Hg4 mi
2:52 pm37 °FLow clouds.9 mph76%30.09 "Hg10 mi
1:52 pm38 °FPartly sunny.8 mph79%30.10 "Hg10 mi
12:52 pm37 °FLow clouds.7 mph79%30.11 "Hg10 mi
Weather by CustomWeather, © 2019

See weather overview